BREEZE-M R/B

Last updated on Aug. 14, 2020, 12:02 a.m. UTC

1 45987U 20053C   20225.59249222 -.00000184  00000-0  00000-0 0  9993
2 45987   0.8954 277.6628 4667553 182.8314 313.6989  1.03583763   120
UTC
Height (km)
Latitude
Longitude
Inclination
Orbital Period
UTC large
Height (km)
Speed (km/s)
/
Latitude / Longitude
Inclination (degrees)
Orbital Period (minutes)
Azimuth
Elevation
Range (km)
Doppler Factor
iOS Compass Heading
iOS Angle

Next 30 passes for location: Hong Kong

Rise time Rise Azimuth (degrees) Set time Set Azimuth (degrees) Duration Max altitude (degrees)

No matching passes for this satellites